Location: Montreal
(45.5087°N, 73.5540°W)
Time: 23:34:11
(UTC-04:00)

ISS - Pass Details

Date: 15 May 2026
Orbit: 415 x 423 km, 51.6° (Epoch: 10 June)

Event Time Altitude Azimuth Distance (km) Brightness Sun altitude
Rises 23:24:29 0° 298° (WNW) 2,358 0.8 -22.5°
Reaches altitude 10° 23:26:39 10° 305° (NW) 1,493 -0.2 -22.6°
Enters shadow 23:29:45 44° 12° (NNE) 586 -2.7 -22.8°
